This demonstration page uses our WeatherBlox Daily Observations layout. Learn more.

Left ArrowRight Arrow

38.80484, -77.04692

Hourly Observations for November 18, 2021

Temp ( °F °C ) Dew Point ( °F °C ) Humidity (%) Winds ( mph kmh ) Pressure ( in mb ) Visibility ( mi km ) Precip ( " mm )
12:52 am 00:52 Mostly Clear 56 13.3 48 8.9 75 75 SSW 9 15 30.11 1020 10 16 N/A
1:52 am 01:52 Mostly Clear 57 13.9 47 8.3 69 69 N N/A 30.11 1020 10 16 N/A
2:52 am 02:52 Mostly Clear 56 13.3 46 7.8 70 70 SSW 6 9 30.10 1019 10 16 N/A
3:52 am 03:52 Mostly Clear 54 12.2 46 7.8 75 75 S 6 9 30.09 1019 10 16 N/A
4:52 am 04:52 Mostly Clear 54 12.2 45 7.2 72 72 N N/A 30.09 1019 10 16 N/A
5:52 am 05:52 Mostly Clear 52 11.1 45 7.2 77 77 SSW 7 11 30.09 1019 10 16 N/A
6:52 am 06:52 Mostly Clear 51 10.6 45 7.2 80 80 S 9 15 30.10 1019 10 16 N/A
7:52 am 07:52 Mostly Sunny 53 11.7 46 7.8 77 77 S 9 15 30.11 1020 10 16 N/A
8:52 am 08:52 Mostly Sunny 57 13.9 47 8.3 69 69 S 7 11 30.11 1020 10 16 N/A
9:52 am 09:52 Mostly Sunny 62 16.7 48 8.9 60 60 SSW 10 17 30.10 1019 10 16 N/A
10:52 am 10:52 Mostly Sunny 63 17.2 48 8.9 58 58 S 15 24 30.07 1018 10 16 N/A
11:52 am 11:52 Sunny 67 19.4 48 8.9 51 51 S 12 19 30.03 1017 10 16 N/A
12:52 pm 12:52 Mostly Sunny 72 22.2 46 7.8 40 40 SSW 17 28 29.99 1016 10 16 N/A
1:52 pm 13:52 Partly Cloudy 73 22.8 46 7.8 38 38 S 21 33 29.96 1015 10 16 N/A
2:52 pm 14:52 Partly Cloudy 74 23.3 46 7.8 37 37 SSW 21 33 29.95 1014 10 16 N/A
3:52 pm 15:52 Mostly Cloudy 73 22.8 47 8.3 40 40 S 13 20 29.94 1014 10 16 N/A
4:52 pm 16:52 Mostly Cloudy 71 21.7 47 8.3 42 42 SSW 13 20 29.93 1014 10 16 N/A
5:52 pm 17:52 Cloudy 70 21.1 48 8.9 46 46 SSW 8 13 29.95 1014 10 16 N/A
6:52 pm 18:52 Cloudy 68 20 52 11.1 57 57 NW 22 35 29.99 1016 10 16 0.00 0.00
6:54 pm 18:54 Cloudy 66 18.9 53 11.7 63 63 NW 26 43 30.00 1016 10 16 N/A
7:52 pm 19:52 Cloudy with Light Rain 56 13.3 49 9.4 77 77 NNW 14 22 30.05 1018 10 16 0.01 0.25
8:52 pm 20:52 Cloudy with Light Rain 53 11.7 41 5 64 64 NNW 21 33 30.09 1019 10 16 0.00 0.00
9:52 pm 21:52 Cloudy with Light Rain 49 9.4 32 undefined 52 52 NNW 10 17 30.13 1020 10 16 0.05 1.27
10:52 pm 22:52 Cloudy 49 9.4 27 -2.8 43 43 NW 22 35 30.15 1021 10 16 0.00 0.00
11:52 pm 23:52 Cloudy 48 8.9 28 -2.2 46 46 NW 14 22 30.17 1022 10 16 N/A

Powered by AerisWeather